Location: Beaver Brook Station
(42.3793°N, 71.2203°W)
Time: 02:07:05
(UTC+00:00)

ADEOS Rocket - Pass Details

Date: 29 October 2020
Orbit: 859 x 1306 km, 98.7° (Epoch: 05 December)

Event Time Altitude Azimuth Distance (km) Brightness Sun altitude
Rises 22:04:38 0° 10° (N) 3,778 5.8 -5.0°
Reaches altitude 10° 22:07:03 10° 8° (N) 2,881 5.3 -5.4°
Maximum altitude 22:13:34 69° 288° (WNW) 1,216 3.8 -6.6°
Drops below altitude 10° 22:20:45 10° 207° (SSW) 3,168 6.2 -7.9°
Sets 22:23:31 0° 205° (SSW) 4,177 6.8 -8.4°
